"Sample Date","Sample Time","Sensor Name","Sample Value","Units","Flow Rate","Sample Interval","Sample Volume","Laser Status","Number Channels","Micron Size 0","Counts/Channel 0","Micron Size 1","Counts/Channel 1","Micron Size 2","Counts/Channel 2","Micron Size 3","Counts/Channel 3","Micron Size 4","Counts/Channel 4","Micron Size 5","Counts/Channel 5","Micron Size 6","Counts/Channel 6","Micron Size 7","Counts/Channel 7","Micron Size 8","Counts/Channel 8","Micron Size 9","Counts/Channel 9","Micron Size 10","Counts/Channel 10","Micron Size 11","Counts/Channel 11","Micron Size 12","Counts/Channel 12","Micron Size 13","Counts/Channel 13","Micron Size 14","Counts/Channel 14","Micron Size 15","Counts/Channel 15","Micron Size 16","Counts/Channel 16","Micron Size 17","Counts/Channel 17","Micron Size 18","Counts/Channel 18","Micron Size 19","Counts/Channel 19","Micron Size 20","Counts/Channel 20","Micron Size 21","Counts/Channel 21","Micron Size 22","Counts/Channel 22","Micron Size 23","Counts/Channel 23","Micron Size 24","Counts/Channel 24","Micron Size 25","Counts/Channel 25","Micron Size 26","Counts/Channel 26","Micron Size 27","Counts/Channel 27","Micron Size 28","Counts/Channel 28","Micron Size 29","Counts/Channel 29","Micron Size 30","Counts/Channel 30","Micron Size 31","Counts/Channel 31"
"07/09/06","00:00:01","AMMA06",31204.000,"cc",28329.297,6.00,2832.930,1,6,0.100,19521.000,0.200,10392.000,0.300,1091.000,0.500,134.000,1.000,66.000,5.000,0
"07/09/06","00:00:07","AMMA06",31075.000,"cc",28292.525,6.00,2829.253,1,6,0.100,19521.000,0.200,10222.000,0.300,1096.000,0.500,147.000,1.000,89.000,5.000,0
"07/09/06","00:00:13","AMMA06",30767.000,"cc",28316.014,6.00,2831.602,1,6,0.100,19310.000,0.200,10138.000,0.300,1105.000,0.500,135.000,1.000,79.000,5.000,0
"07/09/06","00:00:19","AMMA06",30906.000,"cc",28265.416,6.00,2826.542,1,6,0.100,19168.000,0.200,10279.000,0.300,1223.000,0.500,150.000,1.000,86.000,5.000,0
"07/09/06","00:00:25","AMMA06",31226.000,"cc",28361.981,6.00,2836.198,1,6,0.100,19670.000,0.200,10268.000,0.300,1063.000,0.500,129.000,1.000,96.000,5.000,0
"07/09/06","00:00:31","AMMA06",31062.000,"cc",28347.504,6.00,2834.751,1,6,0.100,19631.000,0.200,10138.000,0.300,1046.000,0.500,163.000,1.000,84.000,5.000,0
"07/09/06","00:00:37","AMMA06",30880.000,"cc",28331.246,6.00,2833.125,1,6,0.100,19238.000,0.200,10282.000,0.300,1112.000,0.500,153.000,1.000,95.000,5.000,0
"07/09/06","00:00:43","AMMA06",30690.000,"cc",28290.000,6.00,2829.000,1,6,0.100,19152.000,0.200,10272.000,0.300,1047.000,0.500,136.000,1.000,83.000,5.000,0
"07/09/06","00:00:49","AMMA06",30879.000,"cc",28304.371,6.00,2830.437,1,6,0.100,19143.000,0.200,10368.000,0.300,1145.000,0.500,152.000,1.000,71.000,5.000,0
"07/09/06","00:00:55","AMMA06",30673.000,"cc",28305.717,6.00,2830.572,1,6,0.100,19260.000,0.200,10173.000,0.300,1024.000,0.500,112.000,1.000,104.000,5.000,0
"07/09/06","00:01:01","AMMA06",31124.000,"cc",28338.777,6.00,2833.878,1,6,0.100,19499.000,0.200,10251.000,0.300,1146.000,0.500,138.000,1.000,90.000,5.000,0
"07/09/06","00:01:07","AMMA06",30842.000,"cc",28302.861,6.00,2830.286,1,6,0.100,19265.000,0.200,10203.000,0.300,1127.000,0.500,132.000,1.000,115.000,5.000,0
"07/09/06","00:01:13","AMMA06",30627.000,"cc",28338.484,6.00,2833.849,1,6,0.100,19166.000,0.200,10076.000,0.300,1146.000,0.500,151.000,1.000,88.000,5.000,0
"07/09/06","00:01:19","AMMA06",30943.000,"cc",28328.008,6.00,2832.801,1,6,0.100,19266.000,0.200,10331.000,0.300,1099.000,0.500,156.000,1.000,91.000,5.000,0
"07/09/06","00:01:25","AMMA06",30776.000,"cc",28303.523,6.00,2830.353,1,6,0.100,19512.000,0.200,9964.000,0.300,1112.000,0.500,122.000,1.000,66.000,5.000,0
"07/09/06","00:01:31","AMMA06",30634.000,"cc",28298.666,6.00,2829.867,1,6,0.100,19333.000,0.200,10088.000,0.300,1009.000,0.500,126.000,1.000,78.000,5.000,0
"07/09/06","00:01:37","AMMA06",31075.000,"cc",28313.949,6.00,2831.395,1,6,0.100,19492.000,0.200,10299.000,0.300,1051.000,0.500,158.000,1.000,75.000,5.000,0
"07/09/06","00:01:43","AMMA06",30794.000,"cc",28332.373,6.00,2833.238,1,6,0.100,19389.000,0.200,10064.000,0.300,1128.000,0.500,131.000,1.000,82.000,5.000,0
"07/09/06","00:01:49","AMMA06",30794.000,"cc",28314.197,6.00,2831.420,1,6,0.100,19253.000,0.200,10207.000,0.300,1097.000,0.500,139.000,1.000,98.000,5.000,0
"07/09/06","00:01:55","AMMA06",30754.000,"cc",28348.863,6.00,2834.887,1,6,0.100,19283.000,0.200,10173.000,0.300,1092.000,0.500,145.000,1.000,61.000,5.000,0
"07/09/06","00:02:01","AMMA06",30904.000,"cc",28312.762,6.00,2831.276,1,6,0.100,19319.000,0.200,10275.000,0.300,1081.000,0.500,158.000,1.000,71.000,5.000,0
"07/09/06","00:02:07","AMMA06",31122.000,"cc",28294.893,6.00,2829.490,1,6,0.100,19491.000,0.200,10221.000,0.300,1146.000,0.500,169.000,1.000,95.000,5.000,0
"07/09/06","00:02:13","AMMA06",30875.000,"cc",28286.854,6.00,2828.686,1,6,0.100,19188.000,0.200,10319.000,0.300,1125.000,0.500,155.000,1.000,88.000,5.000,0
"07/09/06","00:02:19","AMMA06",30748.000,"cc",28371.807,6.00,2837.181,1,6,0.100,19163.000,0.200,10205.000,0.300,1116.000,0.500,164.000,1.000,100.000,5.000,0
"07/09/06","00:02:25","AMMA06",30746.000,"cc",28333.551,6.00,2833.355,1,6,0.100,19223.000,0.200,10220.000,0.300,1072.000,0.500,136.000,1.000,95.000,5.000,0
"07/09/06","00:02:31","AMMA06",30771.000,"cc",28305.065,6.00,2830.507,1,6,0.100,19259.000,0.200,10197.000,0.300,1069.000,0.500,153.000,1.000,93.000,5.000,0
"07/09/06","00:02:37","AMMA06",30786.000,"cc",28271.865,6.00,2827.187,1,6,0.100,19440.000,0.200,10111.000,0.300,1035.000,0.500,137.000,1.000,63.000,5.000,0
"07/09/06","00:02:43","AMMA06",30506.000,"cc",28360.330,6.00,2836.033,1,6,0.100,19129.000,0.200,10116.000,0.300,1038.000,0.500,140.000,1.000,83.000,5.000,0
"07/09/06","00:02:49","AMMA06",30923.000,"cc",28319.664,6.00,2831.967,1,6,0.100,19210.000,0.200,10370.000,0.300,1137.000,0.500,116.000,1.000,90.000,5.000,0
"07/09/06","00:02:55","AMMA06",30663.000,"cc",28350.545,6.00,2835.055,1,6,0.100,19043.000,0.200,10343.000,0.300,1061.000,0.500,122.000,1.000,94.000,5.000,0
"07/09/06","00:03:01","AMMA06",30855.000,"cc",28305.768,6.00,2830.577,1,6,0.100,19143.000,0.200,10374.000,0.300,1124.000,0.500,129.000,1.000,85.000,5.000,0
"07/09/06","00:03:07","AMMA06",31047.000,"cc",28292.049,6.00,2829.205,1,6,0.100,19002.000,0.200,10726.000,0.300,1081.000,0.500,154.000,1.000,84.000,5.000,0
"07/09/06","00:03:13","AMMA06",31116.000,"cc",28314.770,6.00,2831.477,1,6,0.100,18755.000,0.200,10946.000,0.300,1166.000,0.500,178.000,1.000,71.000,5.000,0
"07/09/06","00:03:19","AMMA06",31419.000,"cc",28297.369,6.00,2829.737,1,6,0.100,18949.000,0.200,10866.000,0.300,1267.000,0.500,211.000,1.000,126.000,5.000,0
"07/09/06","00:03:25","AMMA06",31719.000,"cc",28305.918,6.00,2830.592,1,6,0.100,19183.000,0.200,10954.000,0.300,1224.000,0.500,241.000,1.000,117.000,5.000,0
"07/09/06","00:03:31","AMMA06",32277.000,"cc",28340.000,6.00,2834.000,1,6,0.100,19387.000,0.200,11097.000,0.300,1354.000,0.500,268.000,1.000,171.000,5.000,0
"07/09/06","00:03:37","AMMA06",31432.000,"cc",28348.289,6.00,2834.829,1,6,0.100,18971.000,0.200,11014.000,0.300,1137.000,0.500,207.000,1.000,103.000,5.000,0
"07/09/06","00:03:43","AMMA06",31945.000,"cc",28292.645,6.00,2829.265,1,6,0.100,19044.000,0.200,11297.000,0.300,1247.000,0.500,235.000,1.000,122.000,5.000,0
"07/09/06","00:03:49","AMMA06",31875.000,"cc",28339.070,6.00,2833.907,1,6,0.100,19096.000,0.200,11192.000,0.300,1260.000,0.500,221.000,1.000,106.000,5.000,0
"07/09/06","00:03:55","AMMA06",32131.000,"cc",28325.840,6.00,2832.584,1,6,0.100,19115.000,0.200,11223.000,0.300,1345.000,0.500,292.000,1.000,156.000,5.000,0
"07/09/06","00:04:01","AMMA06",36150.000,"cc",28334.078,6.00,2833.408,1,6,0.100,20655.000,0.200,12301.000,0.300,2166.000,0.500,743.000,1.000,285.000,5.000,0
"07/09/06","00:04:07","AMMA06",32151.000,"cc",28245.096,6.00,2824.510,1,6,0.100,19085.000,0.200,11343.000,0.300,1379.000,0.500,238.000,1.000,106.000,5.000,0
"07/09/06","00:04:13","AMMA06",31952.000,"cc",28305.648,6.00,2830.565,1,6,0.100,19143.000,0.200,11216.000,0.300,1281.000,0.500,217.000,1.000,95.000,5.000,0
"07/09/06","00:04:19","AMMA06",31586.000,"cc",28335.836,6.00,2833.584,1,6,0.100,18973.000,0.200,11123.000,0.300,1202.000,0.500,164.000,1.000,124.000,5.000,0
"07/09/06","00:04:25","AMMA06",31707.000,"cc",28327.057,6.00,2832.706,1,6,0.100,18929.000,0.200,11265.000,0.300,1221.000,0.500,183.000,1.000,109.000,5.000,0
"07/09/06","00:04:31","AMMA06",31897.000,"cc",28282.986,6.00,2828.299,1,6,0.100,19164.000,0.200,11209.000,0.300,1226.000,0.500,194.000,1.000,104.000,5.000,0
"07/09/06","00:04:37","AMMA06",31897.000,"cc",28319.527,6.00,2831.953,1,6,0.100,19298.000,0.200,10991.000,0.300,1306.000,0.500,199.000,1.000,103.000,5.000,0
"07/09/06","00:04:43","AMMA06",31823.000,"cc",28301.533,6.00,2830.154,1,6,0.100,19215.000,0.200,11102.000,0.300,1192.000,0.500,202.000,1.000,112.000,5.000,0
"07/09/06","00:04:49","AMMA06",31881.000,"cc",28350.086,6.00,2835.009,1,6,0.100,19414.000,0.200,11023.000,0.300,1183.000,0.500,147.000,1.000,114.000,5.000,0
"07/09/06","00:04:55","AMMA06",31485.000,"cc",28345.389,6.00,2834.539,1,6,0.100,19322.000,0.200,10756.000,0.300,1148.000,0.500,167.000,1.000,92.000,5.000,0
"07/09/06","00:05:01","AMMA06",31764.000,"cc",28314.666,6.00,2831.467,1,6,0.100,19442.000,0.200,10900.000,0.300,1159.000,0.500,162.000,1.000,101.000,5.000,0
"07/09/06","00:05:07","AMMA06",32278.000,"cc",28295.641,6.00,2829.564,1,6,0.100,19786.000,0.200,11071.000,0.300,1195.000,0.500,141.000,1.000,85.000,5.000,0
"07/09/06","00:05:13","AMMA06",31902.000,"cc",28359.578,6.00,2835.958,1,6,0.100,19238.000,0.200,11173.000,0.300,1246.000,0.500,152.000,1.000,93.000,5.000,0
"07/09/06","00:05:19","AMMA06",31948.000,"cc",28322.953,6.00,2832.295,1,6,0.100,19294.000,0.200,11085.000,0.300,1252.000,0.500,199.000,1.000,118.000,5.000,0
"07/09/06","00:05:25","AMMA06",31382.000,"cc",28316.279,6.00,2831.628,1,6,0.100,19224.000,0.200,10771.000,0.300,1147.000,0.500,142.000,1.000,98.000,5.000,0
"07/09/06","00:05:31","AMMA06",31436.000,"cc",28272.713,6.00,2827.272,1,6,0.100,19177.000,0.200,10813.000,0.300,1222.000,0.500,135.000,1.000,89.000,5.000,0
"07/09/06","00:05:37","AMMA06",31917.000,"cc",28339.770,6.00,2833.977,1,6,0.100,19437.000,0.200,11034.000,0.300,1216.000,0.500,160.000,1.000,70.000,5.000,0
"07/09/06","00:05:43","AMMA06",31677.000,"cc",28342.387,6.00,2834.239,1,6,0.100,19327.000,0.200,10891.000,0.300,1239.000,0.500,137.000,1.000,83.000,5.000,0
"07/09/06","00:05:49","AMMA06",31694.000,"cc",28238.979,6.00,2823.898,1,6,0.100,19291.000,0.200,10950.000,0.300,1224.000,0.500,142.000,1.000,87.000,5.000,0
"07/09/06","00:05:55","AMMA06",31472.000,"cc",28333.813,6.00,2833.381,1,6,0.100,19298.000,0.200,10758.000,0.300,1205.000,0.500,137.000,1.000,74.000,5.000,0
"07/09/06","00:06:01","AMMA06",31612.000,"cc",28333.797,6.00,2833.380,1,6,0.100,19195.000,0.200,11013.000,0.300,1194.000,0.500,123.000,1.000,87.000,5.000,0
"07/09/06","00:06:07","AMMA06",32004.000,"cc",28360.592,6.00,2836.059,1,6,0.100,19518.000,0.200,11013.000,0.300,1215.000,0.500,159.000,1.000,99.000,5.000,0
"07/09/06","00:06:13","AMMA06",31735.000,"cc",28285.785,6.00,2828.579,1,6,0.100,19173.000,0.200,11047.000,0.300,1192.000,0.500,208.000,1.000,115.000,5.000,0
"07/09/06","00:06:19","AMMA06",32025.000,"cc",28296.723,6.00,2829.672,1,6,0.100,19464.000,0.200,10974.000,0.300,1254.000,0.500,223.000,1.000,110.000,5.000,0
"07/09/06","00:06:25","AMMA06",31754.000,"cc",28354.336,6.00,2835.434,1,6,0.100,19298.000,0.200,10997.000,0.300,1233.000,0.500,143.000,1.000,83.000,5.000,0
"07/09/06","00:06:31","AMMA06",31940.000,"cc",28354.617,6.00,2835.462,1,6,0.100,19528.000,0.200,11000.000,0.300,1178.000,0.500,145.000,1.000,89.000,5.000,0
"07/09/06","00:06:37","AMMA06",31777.000,"cc",28289.522,6.00,2828.952,1,6,0.100,19385.000,0.200,10980.000,0.300,1202.000,0.500,123.000,1.000,87.000,5.000,0
"07/09/06","00:06:43","AMMA06",31363.000,"cc",28302.686,6.00,2830.269,1,6,0.100,19233.000,0.200,10719.000,0.300,1186.000,0.500,132.000,1.000,93.000,5.000,0
"07/09/06","00:06:49","AMMA06",31871.000,"cc",28311.072,6.00,2831.107,1,6,0.100,19577.000,0.200,10939.000,0.300,1127.000,0.500,143.000,1.000,85.000,5.000,0
"07/09/06","00:06:55","AMMA06",31635.000,"cc",28304.740,6.00,2830.474,1,6,0.100,19416.000,0.200,10852.000,0.300,1140.000,0.500,146.000,1.000,81.000,5.000,0
"07/09/06","00:07:01","AMMA06",31809.000,"cc",28336.102,6.00,2833.610,1,6,0.100,19388.000,0.200,11008.000,0.300,1195.000,0.500,141.000,1.000,77.000,5.000,0
"07/09/06","00:07:07","AMMA06",31960.000,"cc",28306.539,6.00,2830.654,1,6,0.100,19539.000,0.200,11047.000,0.300,1155.000,0.500,142.000,1.000,77.000,5.000,0
"07/09/06","00:07:13","AMMA06",31732.000,"cc",28327.856,6.00,2832.786,1,6,0.100,19423.000,0.200,10897.000,0.300,1204.000,0.500,132.000,1.000,76.000,5.000,0
"07/09/06","00:07:19","AMMA06",31844.000,"cc",28304.066,6.00,2830.407,1,6,0.100,19730.000,0.200,10699.000,0.300,1211.000,0.500,127.000,1.000,77.000,5.000,0
"07/09/06","00:07:25","AMMA06",31755.000,"cc",28310.035,6.00,2831.004,1,6,0.100,19604.000,0.200,10775.000,0.300,1164.000,0.500,128.000,1.000,84.000,5.000,0
"07/09/06","00:07:31","AMMA06",32238.000,"cc",28341.961,6.00,2834.196,1,6,0.100,19990.000,0.200,10845.000,0.300,1152.000,0.500,157.000,1.000,94.000,5.000,0
"07/09/06","00:07:37","AMMA06",31575.000,"cc",28291.822,6.00,2829.182,1,6,0.100,19757.000,0.200,10500.000,0.300,1114.000,0.500,131.000,1.000,73.000,5.000,0
"07/09/06","00:07:43","AMMA06",31695.000,"cc",28297.469,6.00,2829.747,1,6,0.100,19585.000,0.200,10713.000,0.300,1156.000,0.500,144.000,1.000,97.000,5.000,0
"07/09/06","00:07:49","AMMA06",31439.000,"cc",28348.500,6.00,2834.850,1,6,0.100,19376.000,0.200,10664.000,0.300,1171.000,0.500,141.000,1.000,87.000,5.000,0
"07/09/06","00:07:55","AMMA06",31722.000,"cc",28273.377,6.00,2827.338,1,6,0.100,19563.000,0.200,10837.000,0.300,1108.000,0.500,143.000,1.000,71.000,5.000,0
"07/09/06","00:08:01","AMMA06",31991.000,"cc",28350.127,6.00,2835.013,1,6,0.100,19780.000,0.200,10809.000,0.300,1163.000,0.500,152.000,1.000,87.000,5.000,0
"07/09/06","00:08:07","AMMA06",31875.000,"cc",28313.191,6.00,2831.319,1,6,0.100,19785.000,0.200,10725.000,0.300,1156.000,0.500,144.000,1.000,65.000,5.000,0
"07/09/06","00:08:13","AMMA06",31793.000,"cc",28319.197,6.00,2831.920,1,6,0.100,19610.000,0.200,10755.000,0.300,1208.000,0.500,137.000,1.000,83.000,5.000,0
"07/09/06","00:08:19","AMMA06",32103.000,"cc",28311.197,6.00,2831.120,1,6,0.100,19771.000,0.200,10951.000,0.300,1179.000,0.500,119.000,1.000,83.000,5.000,0
"07/09/06","00:08:25","AMMA06",32230.000,"cc",28338.897,6.00,2833.890,1,6,0.100,19763.000,0.200,10996.000,0.300,1223.000,0.500,166.000,1.000,82.000,5.000,0
"07/09/06","00:08:31","AMMA06",31916.000,"cc",28331.316,6.00,2833.132,1,6,0.100,19788.000,0.200,10669.000,0.300,1224.000,0.500,145.000,1.000,90.000,5.000,0
"07/09/06","00:08:37","AMMA06",32068.000,"cc",28317.455,6.00,2831.746,1,6,0.100,19788.000,0.200,10802.000,0.300,1210.000,0.500,182.000,1.000,86.000,5.000,0
"07/09/06","00:08:43","AMMA06",32331.000,"cc",28266.051,6.00,2826.605,1,6,0.100,19875.000,0.200,11045.000,0.300,1145.000,0.500,179.000,1.000,87.000,5.000,0
"07/09/06","00:08:49","AMMA06",31962.000,"cc",28336.709,6.00,2833.671,1,6,0.100,19887.000,0.200,10712.000,0.300,1118.000,0.500,136.000,1.000,109.000,5.000,0
"07/09/06","00:08:55","AMMA06",32049.000,"cc",28305.078,6.00,2830.508,1,6,0.100,19997.000,0.200,10693.000,0.300,1137.000,0.500,129.000,1.000,93.000,5.000,0
"07/09/06","00:09:01","AMMA06",32035.000,"cc",28296.533,6.00,2829.654,1,6,0.100,20018.000,0.200,10704.000,0.300,1104.000,0.500,125.000,1.000,84.000,5.000,0
"07/09/06","00:09:07","AMMA06",31993.000,"cc",28300.365,6.00,2830.037,1,6,0.100,19645.000,0.200,10970.000,0.300,1174.000,0.500,132.000,1.000,72.000,5.000,0
"07/09/06","00:09:13","AMMA06",31848.000,"cc",28323.565,6.00,2832.357,1,6,0.100,19581.000,0.200,10893.000,0.300,1158.000,0.500,141.000,1.000,75.000,5.000,0
"07/09/06","00:09:19","AMMA06",32179.000,"cc",28295.623,6.00,2829.563,1,6,0.100,19844.000,0.200,10925.000,0.300,1197.000,0.500,132.000,1.000,81.000,5.000,0
"07/09/06","00:09:25","AMMA06",32413.000,"cc",28346.270,6.00,2834.627,1,6,0.100,19903.000,0.200,10987.000,0.300,1244.000,0.500,187.000,1.000,92.000,5.000,0
"07/09/06","00:09:31","AMMA06",32359.000,"cc",28288.141,6.00,2828.814,1,6,0.100,20212.000,0.200,10748.000,0.300,1180.000,0.500,129.000,1.000,90.000,5.000,0
"07/09/06","00:09:37","AMMA06",32321.000,"cc",28299.059,6.00,2829.906,1,6,0.100,20009.000,0.200,10919.000,0.300,1145.000,0.500,160.000,1.000,88.000,5.000,0
"07/09/06","00:09:43","AMMA06",32510.000,"cc",28386.459,6.00,2838.646,1,6,0.100,20256.000,0.200,10879.000,0.300,1165.000,0.500,121.000,1.000,89.000,5.000,0
"07/09/06","00:09:49","AMMA06",34194.000,"cc",28300.600,6.00,2830.060,1,6,0.100,20682.000,0.200,11462.000,0.300,1532.000,0.500,347.000,1.000,171.000,5.000,0
"07/09/06","00:09:55","AMMA06",33175.000,"cc",28332.127,6.00,2833.213,1,6,0.100,20483.000,0.200,10998.000,0.300,1326.000,0.500,233.000,1.000,135.000,5.000,0
"07/09/06","00:10:01","AMMA06",32790.000,"cc",28350.981,6.00,2835.098,1,6,0.100,20311.000,0.200,10977.000,0.300,1227.000,0.500,184.000,1.000,91.000,5.000,0
"07/09/06","00:10:07","AMMA06",32714.000,"cc",28236.621,6.00,2823.662,1,6,0.100,20489.000,0.200,10822.000,0.300,1162.000,0.500,154.000,1.000,87.000,5.000,0
"07/09/06","00:10:13","AMMA06",32951.000,"cc",28332.877,6.00,2833.288,1,6,0.100,20536.000,0.200,11071.000,0.300,1097.000,0.500,151.000,1.000,96.000,5.000,0
"07/09/06","00:10:19","AMMA06",32589.000,"cc",28314.527,6.00,2831.453,1,6,0.100,20254.000,0.200,10930.000,0.300,1171.000,0.500,147.000,1.000,87.000,5.000,0
"07/09/06","00:10:25","AMMA06",32844.000,"cc",28316.510,6.00,2831.651,1,6,0.100,20396.000,0.200,10960.000,0.300,1217.000,0.500,168.000,1.000,103.000,5.000,0
"07/09/06","00:10:31","AMMA06",32855.000,"cc",28355.650,6.00,2835.565,1,6,0.100,20636.000,0.200,10810.000,0.300,1160.000,0.500,134.000,1.000,115.000,5.000,0
"07/09/06","00:10:37","AMMA06",33301.000,"cc",28287.186,6.00,2828.719,1,6,0.100,20681.000,0.200,11024.000,0.300,1264.000,0.500,208.000,1.000,124.000,5.000,0
"07/09/06","00:10:43","AMMA06",32827.000,"cc",28334.324,6.00,2833.433,1,6,0.100,20538.000,0.200,10821.000,0.300,1174.000,0.500,192.000,1.000,102.000,5.000,0
"07/09/06","00:10:49","AMMA06",33416.000,"cc",28271.658,6.00,2827.166,1,6,0.100,20759.000,0.200,11006.000,0.300,1288.000,0.500,242.000,1.000,121.000,5.000,0
"07/09/06","00:10:55","AMMA06",32318.000,"cc",28325.238,6.00,2832.524,1,6,0.100,20136.000,0.200,10773.000,0.300,1168.000,0.500,150.000,1.000,91.000,5.000,0
"07/09/06","00:11:01","AMMA06",32151.000,"cc",28343.822,6.00,2834.382,1,6,0.100,20056.000,0.200,10733.000,0.300,1109.000,0.500,165.000,1.000,88.000,5.000,0
"07/09/06","00:11:07","AMMA06",32197.000,"cc",28326.190,6.00,2832.619,1,6,0.100,20105.000,0.200,10766.000,0.300,1114.000,0.500,123.000,1.000,89.000,5.000,0
"07/09/06","00:11:13","AMMA06",32453.000,"cc",28308.650,6.00,2830.865,1,6,0.100,20193.000,0.200,10857.000,0.300,1161.000,0.500,156.000,1.000,86.000,5.000,0
"07/09/06","00:11:19","AMMA06",32613.000,"cc",28256.160,6.00,2825.616,1,6,0.100,20480.000,0.200,10782.000,0.300,1119.000,0.500,147.000,1.000,85.000,5.000,0
"07/09/06","00:11:25","AMMA06",32991.000,"cc",28380.984,6.00,2838.099,1,6,0.100,20617.000,0.200,10951.000,0.300,1167.000,0.500,158.000,1.000,98.000,5.000,0
"07/09/06","00:11:31","AMMA06",32577.000,"cc",28311.123,6.00,2831.113,1,6,0.100,20461.000,0.200,10730.000,0.300,1148.000,0.500,146.000,1.000,92.000,5.000,0
"07/09/06","00:11:37","AMMA06",32475.000,"cc",28338.766,6.00,2833.877,1,6,0.100,20211.000,0.200,10879.000,0.300,1148.000,0.500,149.000,1.000,88.000,5.000,0
"07/09/06","00:11:43","AMMA06",32578.000,"cc",28284.389,6.00,2828.439,1,6,0.100,20438.000,0.200,10775.000,0.300,1146.000,0.500,132.000,1.000,87.000,5.000,0
"07/09/06","00:11:49","AMMA06",32645.000,"cc",28328.287,6.00,2832.829,1,6,0.100,20364.000,0.200,10937.000,0.300,1131.000,0.500,122.000,1.000,91.000,5.000,0
"07/09/06","00:11:55","AMMA06",32937.000,"cc",28342.227,6.00,2834.223,1,6,0.100,20468.000,0.200,11114.000,0.300,1136.000,0.500,149.000,1.000,70.000,5.000,0
"07/09/06","00:12:01","AMMA06",34109.000,"cc",28314.594,6.00,2831.460,1,6,0.100,21405.000,0.200,11209.000,0.300,1265.000,0.500,137.000,1.000,93.000,5.000,0
"07/09/06","00:12:07","AMMA06",34758.000,"cc",28292.147,6.00,2829.215,1,6,0.100,22081.000,0.200,11218.000,0.300,1211.000,0.500,154.000,1.000,94.000,5.000,0
"07/09/06","00:12:13","AMMA06",34366.000,"cc",28275.133,6.00,2827.513,1,6,0.100,21721.000,0.200,11149.000,0.300,1259.000,0.500,159.000,1.000,78.000,5.000,0
"07/09/06","00:12:19","AMMA06",34928.000,"cc",28350.244,6.00,2835.025,1,6,0.100,22365.000,0.200,11193.000,0.300,1154.000,0.500,135.000,1.000,81.000,5.000,0
"07/09/06","00:12:25","AMMA06",34703.000,"cc",28343.926,6.00,2834.393,1,6,0.100,22181.000,0.200,11084.000,0.300,1196.000,0.500,150.000,1.000,92.000,5.000,0
"07/09/06","00:12:31","AMMA06",34838.000,"cc",28248.219,6.00,2824.822,1,6,0.100,22216.000,0.200,11190.000,0.300,1185.000,0.500,156.000,1.000,91.000,5.000,0
"07/09/06","00:12:37","AMMA06",35090.000,"cc",28303.291,6.00,2830.329,1,6,0.100,22306.000,0.200,11384.000,0.300,1157.000,0.500,151.000,1.000,92.000,5.000,0
"07/09/06","00:12:43","AMMA06",34643.000,"cc",28327.057,6.00,2832.706,1,6,0.100,21972.000,0.200,11263.000,0.300,1191.000,0.500,140.000,1.000,77.000,5.000,0
"07/09/06","00:12:49","AMMA06",35046.000,"cc",28349.522,6.00,2834.952,1,6,0.100,22382.000,0.200,11149.000,0.300,1263.000,0.500,152.000,1.000,100.000,5.000,0
"07/09/06","00:12:55","AMMA06",34981.000,"cc",28336.041,6.00,2833.604,1,6,0.100,22199.000,0.200,11296.000,0.300,1221.000,0.500,167.000,1.000,98.000,5.000,0
"07/09/06","00:13:01","AMMA06",34641.000,"cc",28334.609,6.00,2833.461,1,6,0.100,22057.000,0.200,11003.000,0.300,1315.000,0.500,181.000,1.000,85.000,5.000,0
"07/09/06","00:13:07","AMMA06",34508.000,"cc",28294.041,6.00,2829.404,1,6,0.100,21971.000,0.200,11043.000,0.300,1204.000,0.500,187.000,1.000,103.000,5.000,0
"07/09/06","00:13:13","AMMA06",34775.000,"cc",28355.250,6.00,2835.525,1,6,0.100,22055.000,0.200,11293.000,0.300,1175.000,0.500,158.000,1.000,94.000,5.000,0
"07/09/06","00:13:19","AMMA06",34838.000,"cc",28328.438,6.00,2832.844,1,6,0.100,22185.000,0.200,11238.000,0.300,1193.000,0.500,137.000,1.000,85.000,5.000,0
"07/09/06","00:13:25","AMMA06",34457.000,"cc",28349.897,6.00,2834.990,1,6,0.100,21755.000,0.200,11297.000,0.300,1154.000,0.500,148.000,1.000,103.000,5.000,0
"07/09/06","00:13:31","AMMA06",34184.000,"cc",28344.578,6.00,2834.458,1,6,0.100,21595.000,0.200,11086.000,0.300,1245.000,0.500,154.000,1.000,104.000,5.000,0
"07/09/06","00:13:37","AMMA06",34212.000,"cc",28279.301,6.00,2827.930,1,6,0.100,21700.000,0.200,11149.000,0.300,1184.000,0.500,116.000,1.000,63.000,5.000,0
"07/09/06","00:13:43","AMMA06",34126.000,"cc",28309.320,6.00,2830.932,1,6,0.100,21626.000,0.200,11129.000,0.300,1148.000,0.500,144.000,1.000,79.000,5.000,0
"07/09/06","00:13:49","AMMA06",34737.000,"cc",28314.365,6.00,2831.437,1,6,0.100,22087.000,0.200,11228.000,0.300,1182.000,0.500,156.000,1.000,84.000,5.000,0
"07/09/06","00:13:55","AMMA06",34668.000,"cc",28299.754,6.00,2829.976,1,6,0.100,22071.000,0.200,11190.000,0.300,1189.000,0.500,140.000,1.000,78.000,5.000,0
"07/09/06","00:14:01","AMMA06",34591.000,"cc",28256.982,6.00,2825.699,1,6,0.100,21856.000,0.200,11318.000,0.300,1210.000,0.500,132.000,1.000,75.000,5.000,0
"07/09/06","00:14:07","AMMA06",34227.000,"cc",28347.057,6.00,2834.706,1,6,0.100,21638.000,0.200,11192.000,0.300,1185.000,0.500,126.000,1.000,86.000,5.000,0
"07/09/06","00:14:13","AMMA06",34710.000,"cc",28338.445,6.00,2833.845,1,6,0.100,21842.000,0.200,11283.000,0.300,1325.000,0.500,162.000,1.000,98.000,5.000,0
"07/09/06","00:14:19","AMMA06",34882.000,"cc",28351.514,6.00,2835.152,1,6,0.100,21985.000,0.200,11363.000,0.300,1249.000,0.500,193.000,1.000,92.000,5.000,0